DW7875 Weather Reports


Display with metric or nautical units.
time (UTC)temp
F
wind
direction
speed
MPH
gust
MPH
rain 1hr
in
rain 24hr
in
rain mn
in
humidity
%
barometer
mb
20260905021505 75 320 0.0 2.0 0.00 0.95 0.95 84 1011.4
20260905020005 75 320 0.0 2.0 0.00 0.95 0.95 85 1011.4
20260905014505 76 321 0.0 3.0 0.00 0.95 0.95 85 1011.3
20260905013005 76 275 0.0 2.0 0.00 0.95 0.95 85 1011.1
20260905011504 76 275 0.0 1.0 0.00 0.95 0.95 85 1011.1
20260905010002 76 275 0.0 1.0 0.00 0.95 0.95 84 1010.9
20260905004502 76 275 0.0 2.0 0.00 0.95 0.95 84 1011.0
20260905003002 77 275 0.0 2.0 0.00 0.95 0.95 84 1010.8
20260905001502 77 275 0.0 1.0 0.00 0.95 0.95 84 1010.9
20260905000105 77 275 0.0 3.0 0.00 0.95 0.95 84 1010.8
20260904234600 78 158 0.0 0.0 0.00 0.95 0.95 84 1010.6
20260904233108 78 158 0.0 1.0 0.00 0.95 0.95 84 1010.3
20260904231559 79 158 0.0 0.0 0.00 0.95 0.95 84 1010.2
20260904230058 79 158 0.0 2.0 0.00 0.95 0.95 83 1010.7
20260904224556 80 158 0.0 1.0 0.00 0.95 0.95 83 1010.6
20260904223057 80 158 0.0 1.0 0.00 0.95 0.95 81 1010.7
20260904221555 81 158 0.0 1.0 0.00 0.95 0.95 80 1010.9
20260904220104 81 158 0.0 1.0 0.00 0.95 0.95 79 1011.4
20260904214551 82 158 0.0 1.0 0.00 0.95 0.95 77 1011.6
20260904213052 83 158 0.0 1.0 0.00 0.95 0.95 76 1011.8
20260904211550 83 158 0.0 0.0 0.00 0.95 0.95 74 1011.2
20260904210055 84 158 0.0 0.0 0.00 0.95 0.95 74 1011.8
20260904204549 85 158 0.0 1.0 0.00 0.95 0.95 73 1011.7
20260904203050 86 158 0.0 2.0 0.00 0.95 0.95 72 1011.4
20260904201603 87 158 0.0 1.0 0.00 0.95 0.95 70 1011.2
20260904200050 89 158 0.0 1.0 0.00 0.95 0.95 68 1011.7
20260904194546 89 158 0.0 2.0 0.00 0.95 0.95 69 1011.4
20260904193047 88 158 0.0 3.0 0.00 0.95 0.95 70 1011.5
20260904191543 88 158 0.0 2.0 0.00 0.95 0.95 70 1011.7
20260904190040 88 158 0.0 2.0 0.00 0.95 0.95 69 1011.8
20260904184543 89 158 0.0 1.0 0.00 0.95 0.95 69 1012.1
20260904183038 89 159 0.0 2.0 0.00 0.95 0.95 68 1012.2
20260904181540 88 156 1.0 2.0 0.00 0.95 0.95 67 1012.3
20260904180048 88 156 1.0 2.0 0.00 0.95 0.95 68 1012.5
20260904174537 88 156 1.0 3.0 0.00 0.95 0.95 68 1012.5
20260904173039 89 162 1.0 3.0 0.00 0.95 0.95 67 1012.6
20260904171541 88 1 0.0 4.0 0.00 0.95 0.95 67 1012.7
20260904170027 87 8 1.0 4.0 0.00 0.95 0.95 67 1012.8
20260904164525 86 347 0.0 5.0 0.00 0.95 0.95 69 1012.9
20260904163023 86 23 2.0 5.0 0.00 0.95 0.95 67 1013.1
20260904161522 86 38 1.0 5.0 0.00 0.95 0.95 67 1013.3
20260904160020 85 23 1.0 4.0 0.00 0.95 0.95 70 1013.3
20260904154518 85 27 2.0 7.0 0.00 0.95 0.95 71 1013.3
20260904153017 84 17 0.0 5.0 0.00 0.95 0.95 74 1013.3
20260904151511 83 35 1.0 6.0 0.00 0.95 0.95 72 1013.5
20260904150006 81 6 3.0 7.0 0.00 0.95 0.95 78 1013.6
20260904144505 79 1 1.0 3.0 0.00 0.95 0.95 85 1013.6
20260904143019 77 338 0.0 3.0 0.00 0.95 0.95 89 1013.5
20260904141504 76 237 0.0 5.0 0.00 0.95 0.95 89 1013.6
20260904140003 76 242 0.0 4.0 0.00 0.95 0.95 89 1013.6
20260904134502 75 245 1.0 5.0 0.00 0.95 0.95 89 1013.5
20260904133101 74 251 0.0 5.0 0.00 0.95 0.95 89 1013.6
20260904131600 74 243 0.0 4.0 0.00 0.95 0.95 89 1013.4
20260904130100 73 210 1.0 4.0 0.00 0.95 0.95 89 1013.5
20260904124603 73 113 0.0 2.0 0.00 0.95 0.95 89 1013.7
20260904123057 73 195 0.0 2.0 0.00 0.95 0.95 89 1013.8
20260904121557 72 195 0.0 2.0 0.00 0.95 0.95 89 1013.6
20260904114556 72 195 0.0 1.0 0.00 0.95 0.95 89 1013.6
20260904113058 72 195 0.0 2.0 0.00 0.95 0.95 89 1013.7
20260904111606 72 195 0.0 1.0 0.00 0.95 0.95 89 1013.9
20260904110056 72 195 0.0 1.0 0.00 0.95 0.95 89 1013.5
20260904104557 72 195 0.0 2.0 0.01 0.95 0.95 89 1013.5
20260904103054 72 199 1.0 2.0 0.01 0.95 0.95 89 1013.7
20260904101558 72 199 1.0 2.0 0.01 0.95 0.95 89 1013.3
20260904100053 71 199 0.0 1.0 0.01 0.95 0.95 89 1012.8
20260904094603 71 199 0.0 1.0 0.00 0.94 0.94 89 1012.4
20260904093056 71 199 0.0 1.0 0.00 0.94 0.94 89 1012.4
20260904091551 72 199 0.0 1.0 0.06 0.94 0.94 89 1012.5
20260904090052 72 199 0.0 2.0 0.06 0.94 0.94 89 1012.4
20260904084549 72 199 0.0 0.0 0.06 0.94 0.94 89 1012.6
20260904083049 72 199 0.0 2.0 0.06 0.94 0.94 89 1012.7
20260904081607 72 199 0.0 1.0 0.00 0.88 0.88 89 1012.7
20260904080050 72 199 0.0 1.0 0.00 0.88 0.88 88 1012.9
20260904074605 72 199 0.0 1.0 0.00 0.88 0.88 89 1013.0
20260904073101 72 199 0.0 0.0 0.01 0.88 0.88 89 1012.9
20260904071547 72 199 0.0 0.0 0.01 0.88 0.88 88 1012.9
20260904064545 72 199 0.0 2.0 0.01 0.88 0.88 88 1012.7
20260904063049 72 200 0.0 3.0 0.00 0.87 0.87 88 1013.1
20260904061545 72 199 0.0 4.0 0.00 0.87 0.87 88 1012.9
20260904060044 72 119 1.0 4.0 0.01 0.87 0.87 88 1012.4
20260904054549 72 195 0.0 2.0 0.03 0.87 0.87 88 1012.1
20260904053042 71 212 0.0 2.0 0.22 0.87 0.87 87 1012.9
20260904051541 72 216 0.0 0.0 0.87 0.87 0.87 87 1012.9
20260904050040 72 216 0.0 5.0 0.86 0.86 0.86 85 1013.7
20260904044536 73 301 3.0 8.0 0.84 0.84 0.84 83 1015.3
20260904043040 75 220 2.0 11.0 0.64 0.64 0.64 80 1015.7
20260904041528 80 335 5.0 11.0 0.00 0.00 0.00 77 1015.0
20260904040023 80 169 0.0 3.0 0.00 0.00 0.00 82 1012.6
20260904034523 79 119 0.0 3.0 0.00 0.00 0.00 83 1011.9
20260904033020 79 210 0.0 0.0 0.00 0.00 0.00 82 1012.3
20260904031519 79 210 0.0 0.0 0.00 0.00 0.00 82 1012.5
20260904030017 79 210 0.0 0.0 0.00 0.00 0.00 81 1012.6
20260904024519 80 210 0.0 0.0 0.00 0.00 0.00 81 1012.9
20260904023025 80 210 0.0 0.0 0.00 0.00 0.00 80 1012.8